Location: Whispering Pines Observatory
(39.4020°N, 104.7430°W)
Time: 04:47:37
(UTC-06:00)

MOS 1 Rocket - Visible Passes

Search period start: 23 May 2017 00:00
Search period end: 02 June 2017 00:00
Orbit: 615 x 831 km, 97.4° (Epoch: 22 May)

Date Brightness Start Highest point End Pass type
(mag) Time Alt. Az. Time Alt. Az. Time Alt. Az.
23 May 4.4 03:35:00 10° NNE 03:39:52 44° E 03:44:10 14° SSE visible
24 May 6.0 02:47:34 10° NE 02:50:34 15° E 02:53:37 10° SE visible
24 May 3.7 04:24:04 10° N 04:29:05 62° WNW 04:33:59 12° SSW visible
25 May 4.4 03:35:08 10° NNE 03:40:05 46° E 03:44:28 14° SSE visible
26 May 5.9 02:47:38 10° NE 02:50:47 16° E 02:53:59 10° SE visible
26 May 3.7 04:24:14 10° N 04:29:18 61° WNW 04:34:17 11° SSW visible
27 May 4.4 03:35:17 10° NNE 03:40:18 47° E 03:44:46 14° S visible
28 May 5.9 02:47:42 10° NE 02:51:00 17° E 02:54:20 10° SE visible
28 May 3.7 04:24:23 10° N 04:29:30 59° WNW 04:34:34 11° SSW visible
29 May 4.4 03:35:27 10° NNE 03:40:31 48° E 03:45:03 14° S visible
30 May 5.9 02:47:49 10° NE 02:51:13 17° E 02:54:41 10° SE visible
30 May 3.8 04:24:34 10° N 04:29:44 58° WNW 04:34:51 11° SSW visible
31 May 4.3 03:35:36 10° NNE 03:40:45 50° E 03:45:19 14° S visible
01 Jun 5.9 02:47:55 10° NE 02:51:27 18° E 02:55:01 10° SE visible
01 Jun 3.8 04:24:45 10° N 04:29:57 57° WNW 04:35:06 11° SSW visible
